| time (UTC) | temp C | wind direction | speed KPH | gust KPH | rain 1hr cm | rain 24hr cm | rain mn cm | humidity % | barometer mb |
| 20260504110632 | 11 | 22 | 0.0 | 11.3 | 0.00 | 0.00 | 0.00 | 49 | 1111.0 |
| 20260504110132 | 11 | 22 | 4.8 | 8.0 | 0.00 | 0.00 | 0.00 | 49 | 1111.0 |
| 20260504100129 | 11 | 22 | 0.0 | 8.0 | 0.00 | 0.00 | 0.00 | 49 | 1111.0 |
| 20260504090125 | 12 | 22 | 0.0 | 0.0 | 0.00 | 0.00 | 0.00 | 49 | 1111.0 |
| 20260504081743 | 12 | 22 | 0.0 | 9.7 | 0.00 | 0.00 | 0.00 | 49 | 1111.0 |
| 20260504081242 | 12 | 22 | 3.2 | 11.3 | 0.00 | 0.00 | 0.00 | 49 | 1111.0 |
| 20260504080742 | 12 | 22 | 6.4 | 8.0 | 0.00 | 0.00 | 0.00 | 49 | 1111.0 |
| 20260504080242 | 13 | 22 | 0.0 | 3.2 | 0.00 | 0.00 | 0.00 | 49 | 1111.0 |
| 20260504070238 | 13 | 22 | 0.0 | 4.8 | 0.00 | 0.00 | 0.00 | 49 | 1111.0 |
| 20260504060235 | 13 | 0 | 0.0 | 9.7 | 0.00 | 0.00 | 0.00 | 51 | 1111.0 |
| 20260504045731 | 15 | 0 | 3.2 | 4.8 | 0.00 | 0.00 | 0.00 | 51 | 1111.0 |
| 20260504045231 | 15 | 0 | 0.0 | 8.0 | 0.00 | 0.00 | 0.00 | 51 | 1111.0 |
| 20260504044231 | 16 | 0 | 3.2 | 8.0 | 0.00 | 0.00 | 0.00 | 51 | 1111.0 |
| 20260504043730 | 16 | 22 | 4.8 | 4.8 | 0.00 | 0.00 | 0.00 | 51 | 1111.0 |
| 20260504043230 | 16 | 0 | 3.2 | 3.2 | 0.00 | 0.00 | 0.00 | 51 | 1111.0 |
| 20260504042229 | 17 | 0 | 0.0 | 11.3 | 0.00 | 0.00 | 0.00 | 52 | 1111.0 |
| 20260504041729 | 17 | 22 | 0.0 | 4.8 | 0.00 | 0.00 | 0.00 | 52 | 1111.0 |
| 20260504041229 | 17 | 0 | 0.0 | 12.9 | 0.00 | 0.00 | 0.00 | 52 | 1111.0 |
| 20260504040729 | 17 | 22 | 0.0 | 14.5 | 0.00 | 0.00 | 0.00 | 52 | 1111.0 |
| 20260504040228 | 17 | 22 | 0.0 | 17.7 | 0.00 | 0.00 | 0.00 | 53 | 1111.0 |
| 20260504035728 | 17 | 0 | 0.0 | 11.3 | 0.00 | 0.00 | 0.00 | 53 | 1111.0 |
| 20260504035228 | 18 | 0 | 4.8 | 12.9 | 0.00 | 0.00 | 0.00 | 53 | 1111.0 |
| 20260504034727 | 18 | 0 | 0.0 | 16.1 | 0.00 | 0.00 | 0.00 | 53 | 1111.0 |
| 20260504034227 | 18 | 22 | 6.4 | 6.4 | 0.00 | 0.00 | 0.00 | 53 | 1111.0 |
| 20260504033727 | 19 | 0 | 6.4 | 12.9 | 0.00 | 0.00 | 0.00 | 53 | 1111.0 |
| 20260504032726 | 20 | 0 | 0.0 | 14.5 | 0.00 | 0.00 | 0.00 | 54 | 1111.0 |
| 20260504032226 | 21 | 0 | 1.6 | 11.3 | 0.00 | 0.00 | 0.00 | 54 | 1111.0 |
| 20260504031726 | 21 | 0 | 0.0 | 8.0 | 0.00 | 0.00 | 0.00 | 54 | 1111.0 |
| 20260504025725 | 23 | 0 | 0.0 | 22.5 | 0.00 | 0.00 | 0.00 | 55 | 1111.0 |
| 20260504025224 | 23 | 0 | 0.0 | 9.7 | 0.00 | 0.00 | 0.00 | 56 | 1111.0 |
| 20260504024224 | 23 | 0 | 0.0 | 9.7 | 0.00 | 0.00 | 0.00 | 56 | 1111.0 |
| 20260504023723 | 23 | 0 | 0.0 | 11.3 | 0.00 | 0.00 | 0.00 | 56 | 1111.0 |
| 20260504022723 | 24 | 247 | 8.0 | 16.1 | 0.00 | 0.00 | 0.00 | 56 | 1111.0 |
| 20260504022223 | 24 | 315 | 0.0 | 24.1 | 0.00 | 0.00 | 0.00 | 56 | 1111.0 |
| 20260504020722 | 24 | 247 | 8.0 | 11.3 | 0.00 | 0.00 | 0.00 | 57 | 1111.0 |
| 20260504020222 | 24 | 247 | 6.4 | 6.4 | 0.00 | 0.00 | 0.00 | 56 | 1111.0 |
| 20260504015221 | 24 | 0 | 6.4 | 9.7 | 0.00 | 0.00 | 0.00 | 56 | 1111.0 |
| 20260504013721 | 25 | 0 | 0.0 | 3.2 | 0.00 | 0.00 | 0.00 | 56 | 1111.0 |
| 20260504013220 | 25 | 0 | 0.0 | 9.7 | 0.00 | 0.00 | 0.00 | 56 | 1111.0 |
| 20260504012720 | 25 | 0 | 0.0 | 8.0 | 0.00 | 0.00 | 0.00 | 56 | 1111.0 |
| 20260504012219 | 25 | 337 | 0.0 | 4.8 | 0.00 | 0.00 | 0.00 | 56 | 1111.0 |
| 20260504011719 | 25 | 0 | 0.0 | 6.4 | 0.00 | 0.00 | 0.00 | 56 | 1111.0 |
| 20260504011219 | 25 | 0 | 0.0 | 6.4 | 0.00 | 0.00 | 0.00 | 56 | 1111.0 |
| 20260504010718 | 25 | 337 | 0.0 | 4.8 | 0.00 | 0.00 | 0.00 | 56 | 1111.0 |
| 20260504010218 | 25 | 0 | 0.0 | 6.4 | 0.00 | 0.00 | 0.00 | 55 | 1111.0 |
| 20260504005718 | 25 | 0 | 0.0 | 8.0 | 0.00 | 0.00 | 0.00 | 55 | 1111.0 |
| 20260504005218 | 25 | 0 | 0.0 | 17.7 | 0.00 | 0.00 | 0.00 | 54 | 1111.0 |
| 20260504004717 | 26 | 0 | 1.6 | 16.1 | 0.00 | 0.00 | 0.00 | 55 | 1111.0 |
| 20260504003717 | 25 | 0 | 4.8 | 14.5 | 0.00 | 0.00 | 0.00 | 55 | 1111.0 |
| 20260504003218 | 25 | 337 | 0.0 | 16.1 | 0.00 | 0.00 | 0.00 | 55 | 1111.0 |
| 20260504002716 | 25 | 0 | 11.3 | 24.1 | 0.00 | 0.00 | 0.00 | 54 | 1111.0 |
| 20260504001216 | 25 | 0 | 0.0 | 14.5 | 0.00 | 0.00 | 0.00 | 54 | 1111.0 |
| 20260504000215 | 25 | 0 | 0.0 | 16.1 | 0.00 | 0.00 | 0.00 | 54 | 1111.0 |
| 20260503235215 | 25 | 0 | 6.4 | 29.0 | 0.00 | 0.00 | 0.00 | 55 | 1111.0 |
| 20260503234715 | 25 | 0 | 0.0 | 16.1 | 0.00 | 0.00 | 0.00 | 55 | 1111.0 |
| 20260503234215 | 25 | 0 | 3.2 | 14.5 | 0.00 | 0.00 | 0.00 | 54 | 1111.0 |
| 20260503233714 | 25 | 247 | 11.3 | 22.5 | 0.00 | 0.00 | 0.00 | 54 | 1111.0 |
| 20260503233214 | 25 | 247 | 8.0 | 11.3 | 0.00 | 0.00 | 0.00 | 54 | 1111.0 |
| 20260503231713 | 25 | 247 | 1.6 | 24.1 | 0.00 | 0.00 | 0.00 | 54 | 1111.0 |
| 20260503231213 | 25 | 247 | 24.1 | 24.1 | 0.00 | 0.00 | 0.00 | 53 | 1111.0 |
| 20260503230713 | 24 | 247 | 11.3 | 12.9 | 0.00 | 0.00 | 0.00 | 54 | 1111.0 |
| 20260503230212 | 24 | 247 | 0.0 | 0.0 | 0.00 | 0.00 | 0.00 | 53 | 1111.0 |
| 20260503224211 | 24 | 247 | 9.7 | 17.7 | 0.00 | 0.00 | 0.00 | 52 | 1111.0 |
| 20260503223211 | 24 | 247 | 17.7 | 22.5 | 0.00 | 0.00 | 0.00 | 52 | 1111.0 |
| 20260503220709 | 24 | 0 | 1.6 | 17.7 | 0.00 | 0.00 | 0.00 | 52 | 1111.0 |
| 20260503220208 | 24 | 0 | 9.7 | 9.7 | 0.00 | 0.00 | 0.00 | 51 | 1111.0 |
| 20260503215209 | 24 | 247 | 0.0 | 22.5 | 0.00 | 0.00 | 0.00 | 51 | 1111.0 |
| 20260503214208 | 24 | 247 | 9.7 | 9.7 | 0.00 | 0.00 | 0.00 | 51 | 1111.0 |
| 20260503212707 | 23 | 247 | 0.0 | 12.9 | 0.00 | 0.00 | 0.00 | 51 | 1111.0 |
| 20260503212207 | 23 | 247 | 0.0 | 8.0 | 0.00 | 0.00 | 0.00 | 51 | 1111.0 |
| 20260503211706 | 23 | 247 | 0.0 | 14.5 | 0.00 | 0.00 | 0.00 | 51 | 1111.0 |
| 20260503211206 | 23 | 247 | 4.8 | 16.1 | 0.00 | 0.00 | 0.00 | 51 | 1111.0 |
| 20260503210706 | 23 | 247 | 16.1 | 16.1 | 0.00 | 0.00 | 0.00 | 51 | 1111.0 |
| 20260503204704 | 23 | 247 | 0.0 | 9.7 | 0.00 | 0.00 | 0.00 | 52 | 1111.0 |
| 20260503203703 | 23 | 247 | 0.0 | 3.2 | 0.00 | 0.00 | 0.00 | 52 | 1111.0 |
| 20260503202702 | 23 | 247 | 0.0 | 12.9 | 0.00 | 0.00 | 0.00 | 52 | 1111.0 |
| 20260503202203 | 22 | 247 | 0.0 | 8.0 | 0.00 | 0.00 | 0.00 | 53 | 1111.0 |
| 20260503201702 | 22 | 247 | 0.0 | 19.3 | 0.00 | 0.00 | 0.00 | 53 | 1111.0 |
| 20260503200703 | 22 | 247 | 0.0 | 14.5 | 0.00 | 0.00 | 0.00 | 53 | 1111.0 |
| 20260503200201 | 22 | 247 | 4.8 | 6.4 | 0.00 | 0.00 | 0.00 | 53 | 1111.0 |
| 20260503194700 | 22 | 247 | 0.0 | 4.8 | 0.00 | 0.00 | 0.00 | 53 | 1111.0 |
| 20260503193700 | 22 | 247 | 0.0 | 11.3 | 0.00 | 0.00 | 0.00 | 53 | 1111.0 |
| 20260503192659 | 22 | 247 | 0.0 | 6.4 | 0.00 | 0.00 | 0.00 | 53 | 1111.0 |
| 20260503191659 | 22 | 247 | 0.0 | 9.7 | 0.00 | 0.00 | 0.00 | 53 | 1111.0 |
| 20260503191158 | 22 | 247 | 0.0 | 6.4 | 0.00 | 0.00 | 0.00 | 53 | 1111.0 |
| 20260503190158 | 22 | 247 | 6.4 | 9.7 | 0.00 | 0.00 | 0.00 | 53 | 1111.0 |
| 20260503185657 | 22 | 247 | 0.0 | 12.9 | 0.00 | 0.00 | 0.00 | 52 | 1111.0 |
| 20260503185157 | 22 | 247 | 0.0 | 6.4 | 0.00 | 0.00 | 0.00 | 52 | 1111.0 |
| 20260503184157 | 22 | 247 | 3.2 | 16.1 | 0.00 | 0.00 | 0.00 | 52 | 1111.0 |
| 20260503183656 | 22 | 247 | 0.0 | 11.3 | 0.00 | 0.00 | 0.00 | 52 | 1111.0 |
| 20260503181655 | 22 | 247 | 0.0 | 14.5 | 0.00 | 0.00 | 0.00 | 52 | 1111.0 |
| 20260503181155 | 21 | 247 | 0.0 | 8.0 | 0.00 | 0.00 | 0.00 | 52 | 1111.0 |
| 20260503180655 | 21 | 22 | 0.0 | 16.1 | 0.00 | 0.00 | 0.00 | 52 | 1111.0 |
| 20260503180154 | 21 | 247 | 0.0 | 3.2 | 0.00 | 0.00 | 0.00 | 52 | 1111.0 |
| 20260503175654 | 21 | 247 | 0.0 | 9.7 | 0.00 | 0.00 | 0.00 | 52 | 1111.0 |
| 20260503174654 | 21 | 0 | 0.0 | 8.0 | 0.00 | 0.00 | 0.00 | 52 | 1111.0 |
| 20260503174153 | 20 | 0 | 8.0 | 9.7 | 0.00 | 0.00 | 0.00 | 52 | 1111.0 |
| 20260503150644 | 12 | 157 | 0.0 | 0.0 | 0.00 | 0.00 | 0.00 | 50 | 1111.0 |
| 20260503150144 | 12 | 157 | 0.0 | 0.0 | 0.00 | 0.00 | 0.00 | 50 | 1111.0 |
| 20260503140142 | 7 | 157 | 0.0 | 4.8 | 0.00 | 0.00 | 0.00 | 51 | 1111.0 |
| 20260503131138 | 6 | 157 | 0.0 | 11.3 | 0.00 | 0.00 | 0.00 | 51 | 1111.0 |
| 20260503130638 | 6 | 157 | 0.0 | 9.7 | 0.00 | 0.00 | 0.00 | 51 | 1111.0 |